Kozani Airport, Greece

9:59 AM EET on February 08, 2016 (GMT +0200)
Filippos

Weather History for LGKZ - April, 2013

Change the Weather History Date:

Tuesday, April 23, 2013

  Actual Average Record
Temperature  
Mean Temperature 58 °F -  
Max Temperature 69 °F - - ()
Min Temperature 48 °F - - ()
Degree Days  
Heating Degree Days 6    
Growing Degree Days 8 (Base 50)    
Moisture  
Dew Point 46 °F    
Average Humidity 69    
Maximum Humidity 87    
Minimum Humidity 38    
Precipitation  
Precipitation 0.00 in - - ()
Sea Level Pressure  
Sea Level Pressure 30.20 in    
Wind  
Wind Speed 4 mph ()    
Max Wind Speed 12 mph    
Max Gust Speed -    
Visibility 6.2 miles    
Events Rain    
T = Trace of Precipitation, MM = Missing Value Source: Averaged Metar Reports

Daily Weather History Graph

Daily Weather History Graph

Search for Another Location

Airport or City:

Trip Planner

Search our weather history database for the weather conditions in past years. The results will help you decide how hot, cold, wet, or windy it might be!

Date:

Astronomy

Apr. 23, 2013 Rise Set
Actual Time 6:43 AM EEST 8:19 PM EEST
Civil Twilight 6:14 AM EEST 8:48 PM EEST
Nautical Twilight 5:39 AM EEST 9:23 PM EEST
Astronomical Twilight 5:02 AM EEST 10:00 PM EEST
Moon 5:54 PM EEST (4/23) 5:00 AM EEST (4/23)
Length of Visible Light 14h 34m
Length of Day
13h 36m
Waxing Gibbous, 92% of the Moon is Illuminated
Apr 23
Waxing Gibbous
Apr 25
Full
May 2
Last Quarter
May 10
New
May 18
First Quarter

Hourly Weather History & Observations

Time (EEST) Temp. Dew Point Humidity Pressure Visibility Wind Dir Wind Speed Gust Speed Precip Events Conditions
12:20 AM 53.6 °F 48.2 °F 82% 30.12 in - Variable 2.3 mph - N/A Rain Light Rain
12:50 AM 53.6 °F 48.2 °F 82% 30.12 in - Variable 3.5 mph - N/A Rain Light Rain
1:20 AM 53.6 °F 48.2 °F 82% 30.12 in - Variable 3.5 mph - N/A   Unknown
1:50 AM 51.8 °F 46.4 °F 82% 30.12 in - NNW 4.6 mph - N/A   Unknown
2:20 AM 51.8 °F 46.4 °F 82% 30.12 in - Variable 2.3 mph - N/A   Unknown
2:50 AM 51.8 °F 46.4 °F 82% 30.12 in - Variable 3.5 mph - N/A   Unknown
3:20 AM 51.8 °F 46.4 °F 82% 30.12 in - Variable 3.5 mph - N/A   Unknown
3:50 AM 48.2 °F 42.8 °F 82% 30.12 in - Variable 3.5 mph - N/A   Unknown
4:20 AM 48.2 °F 42.8 °F 82% 30.12 in - Variable 2.3 mph - N/A   Unknown
4:50 AM 48.2 °F 44.6 °F 87% 30.15 in - Variable 1.2 mph - N/A   Unknown
5:20 AM 50.0 °F 46.4 °F 87% 30.15 in - Variable 2.3 mph - N/A   Unknown
5:50 AM 50.0 °F 44.6 °F 82% 30.15 in - Variable 2.3 mph - N/A   Unknown
6:20 AM 50.0 °F 46.4 °F 87% 30.15 in - Variable 2.3 mph - N/A   Unknown
6:50 AM 50.0 °F 44.6 °F 82% 30.18 in - NW 4.6 mph - N/A   Unknown
7:20 AM 50.0 °F 44.6 °F 82% 30.18 in - NNW 4.6 mph - N/A   Unknown
7:50 AM 50.0 °F 46.4 °F 87% 30.18 in - Variable 2.3 mph - N/A   Unknown
8:20 AM 53.6 °F 46.4 °F 77% 30.21 in - Variable 1.2 mph - N/A   Unknown
8:50 AM 55.4 °F 48.2 °F 77% 30.21 in 6.2 mi Calm Calm - N/A   Mostly Cloudy
9:50 AM 59.0 °F 48.2 °F 67% 30.21 in 6.2 mi Calm Calm - N/A   Mostly Cloudy
10:50 AM 60.8 °F 44.6 °F 55% 30.24 in 6.2 mi Calm Calm - N/A   Mostly Cloudy
11:50 AM 62.6 °F 42.8 °F 48% 30.24 in 6.2 mi South 4.6 mph - N/A   Scattered Clouds
12:50 PM 66.2 °F 42.8 °F 43% 30.21 in 6.2 mi ESE 4.6 mph - N/A   Scattered Clouds
1:50 PM 68.0 °F 44.6 °F 43% 30.21 in 6.2 mi East 5.8 mph - N/A   Scattered Clouds
2:50 PM 69.8 °F 42.8 °F 38% 30.21 in 6.2 mi East 5.8 mph - N/A   Scattered Clouds
3:20 PM 68.0 °F 42.8 °F 40% 30.21 in - SSE 5.8 mph - N/A   Unknown
3:50 PM 68.0 °F 44.6 °F 43% 30.21 in - SE 6.9 mph - N/A   Unknown
4:20 PM 68.0 °F 44.6 °F 43% 30.21 in - ESE 5.8 mph - N/A   Unknown
4:50 PM 66.2 °F 44.6 °F 46% 30.21 in - SSE 6.9 mph - N/A   Unknown
5:20 PM 66.2 °F 46.4 °F 49% 30.21 in - SSE 5.8 mph - N/A   Unknown
5:50 PM 62.6 °F 50.0 °F 63% 30.21 in - South 8.1 mph - N/A   Unknown
6:20 PM 60.8 °F 46.4 °F 59% 30.21 in - South 6.9 mph - N/A Rain Light Rain
6:50 PM 60.8 °F 44.6 °F 55% 30.21 in - Calm Calm - N/A   Unknown
7:20 PM 60.8 °F 48.2 °F 63% 30.24 in - NNW 5.8 mph - N/A   Unknown
7:50 PM 57.2 °F 50.0 °F 77% 30.24 in - NW 11.5 mph - N/A   Unknown
8:20 PM 57.2 °F 48.2 °F 72% 30.24 in - North 8.1 mph - N/A   Unknown
8:50 PM 55.4 °F 48.2 °F 77% 30.24 in - NW 9.2 mph - N/A   Unknown
9:20 PM 55.4 °F 46.4 °F 72% 30.24 in - NNW 8.1 mph - N/A   Unknown
9:50 PM 55.4 °F 46.4 °F 72% 30.27 in - NW 9.2 mph - N/A   Unknown
10:20 PM 53.6 °F 46.4 °F 77% 30.27 in - NNW 9.2 mph - N/A   Unknown
10:50 PM 53.6 °F 46.4 °F 77% 30.27 in - NNW 9.2 mph - N/A   Unknown
11:20 PM 53.6 °F 46.4 °F 77% 30.30 in - NNW 8.1 mph - N/A   Unknown
11:50 PM 53.6 °F 46.4 °F 77% 30.30 in - NNW 8.1 mph - N/A   Unknown